Wind_Speed
40 40 39 37 36 37 37 37 37 38 38 39 40 43 44 45 47 47 48 50 50 49 50 48 46 45 44 44 44 44 43 42 41 41 40 38 35 33 31 30 30 30 31 31 31 31 32 33 34 34 34 34 34 35 36 37 38 39 40 41 42 42 43 44 45 46 47 47 47 47 46 45 45 44 44 45 45 45 45 45 44 45 46 48 48 48 48
40 40 39 37 36 35 35 35 36 37 37 37 38 41 43 44 46 47 48 50 51 50 50 50 48 47 45 45 45 44 44 43 43 42 40 39 37 34 32 30 30 29 29 29 30 30 31 33 34 34 34 34 35 35 36 36 37 39 40 41 42 43 44 45 46 46 46 46 45 44 44 43 44 44 44 45 45 45 45 46 46 47 49 49 49 49 49
40 39 38 37 36 35 33 34 34 36 37 38 40 42 44 45 46 46 47 50 51 51 52 51 50 49 48 46 45 43 41 40 39 39 38 38 38 35 32 30 30 29 29 29 29 29 30 32 33 34 34 35 35 35 36 36 38 39 41 41 42 43 44 45 45 44 44 43 42 42 42 42 43 44 45 45 46 47 47 48 48 49 49 49 49 50 51
41 39 37 37 36 35 34 34 34 34 36 38 40 43 45 46 46 45 45 46 48 50 52 52 51 50 48 46 43 41 38 36 35 36 36 38 38 35 32 31 30 30 30 29 29 29 29 30 31 32 33 34 34 35 36 37 38 40 41 41 42 42 42 42 42 41 41 40 40 41 41 42 44 45 46 46 47 47 47 48 48 49 50 51 52 53 53
41 40 37 36 36 35 36 36 36 35 35 37 39 42 44 45 45 44 44 44 46 48 51 52 51 50 48 46 43 42 40 39 38 38 39 39 38 36 34 34 34 34 32 31 30 30 30 30 30 31 32 33 34 35 36 37 38 39 39 39 39 40 40 40 39 38 38 39 40 41 42 44 44 45 45 45 45 46 46 47 49 50 51 52 53 53 54
40 40 37 36 37 37 37 36 36 36 36 36 38 41 43 44 44 44 44 45 46 46 48 50 51 50 48 46 44 43 43 42 41 41 41 41 39 38 36 35 34 33 33 32 31 31 31 32 32 32 33 33 34 35 36 36 36 37 37 37 37 37 37 36 36 37 38 40 41 42 42 42 42 42 43 43 44 46 47 48 49 50 51 51 52 52 53
39 40 39 38 39 39 38 37 36 36 35 35 36 39 42 44 45 45 45 46 46 45 46 48 50 49 48 45 44 43 42 41 40 40 41 40 40 38 36 33 32 31 31 31 31 31 31 32 32 32 33 33 33 34 34 35 35 35 35 35 35 35 35 35 37 38 39 40 40 40 40 40 40 41 42 44 45 46 47 47 48 48 49 49 50 51 51
41 42 42 41 40 41 40 38 36 35 35 35 35 36 39 43 46 47 47 47 47 47 47 47 47 47 46 44 42 42 41 40 40 40 39 39 38 37 35 34 32 31 30 30 30 30 30 30 31 31 31 32 32 33 33 33 33 33 33 33 33 34 35 36 37 38 38 38 38 38 39 40 41 42 43 44 44 45 45 46 46 47 48 49 50 50 51
43 43 43 42 42 42 41 39 37 35 35 36 35 35 37 41 45 47 48 48 49 49 48 47 46 46 45 44 42 41 40 41 41 40 39 38 37 36 35 34 32 30 29 28 28 28 28 29 30 30 31 32 32 32 32 31 31 31 32 32 33 35 36 36 37 37 37 37 37 38 39 40 40 41 41 42 42 43 44 45 47 47 48 49 49 50 50
44 44 43 43 43 42 40 40 39 37 36 36 36 35 36 39 42 44 46 48 49 50 49 48 48 46 45 45 44 43 42 42 41 40 39 38 37 36 36 34 31 28 27 26 27 28 28 29 29 30 31 31 31 31 30 30 31 32 33 33 34 35 35 35 35 35 35 36 36 37 38 38 38 39 39 40 41 43 44 46 47 47 48 49 49 50 51
46 45 45 44 44 43 41 41 40 40 39 38 37 37 37 37 38 40 43 45 48 49 50 50 49 48 47 46 46 45 43 41 40 39 39 39 38 37 35 32 29 27 27 27 28 29 29 29 29 29 29 30 30 30 30 31 32 33 33 34 34 34 33 33 33 34 34 35 35 36 36 36 36 37 38 40 42 43 44 45 46 47 48 49 49 50 51
46 47 46 45 44 44 43 42 42 41 40 39 40 40 37 35 35 36 36 38 42 45 47 48 48 47 46 46 46 43 40 38 38 39 39 39 39 36 34 32 29 28 28 28 29 28 28 28 28 28 29 30 30 30 30 31 32 32 32 32 32 31 31 32 32 33 33 33 33 33 33 34 36 37 39 40 42 43 44 45 46 47 48 48 49 50 51
44 43 42 40 40 41 41 41 40 40 40 41 41 39 35 33 34 33 31 32 35 37 40 42 43 45 45 44 43 40 37 36 37 37 38 38 37 36 34 31 29 28 28 28 28 28 28 27 28 28 29 30 30 30 31 31 30 30 30 29 29 29 30 31 31 31 31 31 31 32 33 35 36 38 39 40 42 42 43 44 45 46 47 48 49 50 50
37 35 34 35 36 36 37 37 37 38 39 40 39 36 34 34 34 33 33 33 33 33 35 36 38 41 42 41 40 39 36 35 35 34 32 32 32 31 30 28 27 27 27 27 27 28 28 28 28 29 29 29 30 30 29 29 28 27 27 27 28 29 29 28 28 28 28 29 30 32 34 35 37 38 39 40 41 41 42 43 44 45 46 47 48 48 48
31 31 31 31 32 31 31 33 34 35 36 36 35 35 35 35 34 35 36 37 36 36 38 40 40 41 41 40 39 37 35 34 33 30 27 26 26 26 26 26 26 26 27 28 28 29 29 29 28 28 28 28 28 28 27 26 26 26 26 26 26 26 26 26 26 27 28 29 31 33 34 36 37 38 38 39 39 39 40 41 43 44 45 46 46 46 46
30 30 29 29 28 27 27 28 29 31 32 32 33 35 36 35 35 36 37 38 36 34 34 36 38 39 39 38 36 34 32 31 30 28 26 26 26 26 26 26 26 27 28 29 30 30 29 28 27 27 27 27 26 26 25 24 24 25 24 24 23 23 23 25 26 27 29 30 32 34 35 36 37 37 37 37 37 37 39 40 42 43 43 44 44 43 44
30 29 28 26 25 25 26 26 26 26 27 28 30 33 35 36 36 36 36 35 33 29 25 24 28 32 33 32 31 30 29 28 27 27 27 27 27 27 26 27 27 28 29 29 29 28 28 27 26 25 25 25 24 24 23 23 23 22 22 21 22 22 23 25 26 28 30 31 33 34 35 35 35 35 35 34 35 36 38 39 40 41 42 42 42 42 42
29 28 27 26 25 25 26 26 25 25 24 23 24 26 27 28 30 32 32 33 32 30 27 25 26 27 27 27 27 28 27 27 27 28 28 28 27 28 28 28 28 28 28 28 27 27 26 25 25 24 23 23 23 22 22 21 20 19 19 20 21 22 24 25 27 29 30 32 33 34 34 33 33 33 32 32 33 35 36 38 39 39 40 40 40 40 41
26 24 23 23 24 25 25 25 25 25 26 25 23 22 21 21 23 26 28 29 29 29 29 28 27 27 26 26 27 27 27 27 29 29 28 28 29 29 28 28 28 27 27 27 26 25 25 24 23 22 22 22 21 21 20 19 18 18 18 19 21 22 24 26 28 29 31 32 32 32 32 31 30 30 30 31 32 33 35 36 37 38 38 38 38 39 40
24 23 23 22 23 23 24 23 24 24 25 26 26 25 24 22 23 24 25 26 27 27 27 27 28 28 29 29 28 26 26 28 29 29 28 28 28 28 28 27 27 27 26 26 25 24 23 22 22 21 21 20 20 19 17 17 17 18 18 19 21 22 24 27 29 30 31 31 30 30 29 28 27 27 28 29 30 32 33 35 36 37 37 37 37 38 39
19 20 21 21 22 22 23 23 22 22 23 23 24 24 24 23 23 23 23 24 24 24 24 25 26 27 28 28 27 26 27 29 29 28 27 28 29 29 28 28 27 26 25 24 23 22 22 21 20 20 19 19 17 16 16 16 17 17 18 19 21 23 25 27 28 29 29 28 28 27 26 25 25 26 27 28 29 31 33 34 36 37 37 38 38 38 39
17 18 20 21 22 23 23 23 22 21 21 20 20 21 21 21 21 21 22 22 22 23 24 24 25 26 27 27 28 28 29 29 27 26 27 28 28 28 28 27 26 25 24 23 22 21 21 20 19 18 18 17 16 16 16 16 16 17 19 20 22 24 26 26 27 26 26 26 25 24 23 23 24 25 26 27 28 31 33 34 36 37 37 37 37 38 39
17 17 18 19 20 21 22 23 23 23 22 21 20 20 20 20 20 20 21 21 22 22 23 24 25 25 26 27 28 28 28 27 26 26 28 29 29 28 27 26 25 24 23 22 21 21 19 18 18 17 16 16 15 15 15 15 16 18 20 21 23 24 25 25 25 24 24 23 23 22 21 22 23 24 25 27 29 31 33 34 36 37 37 37 37 38 39
17 16 16 17 18 19 20 22 23 24 24 23 23 22 21 21 21 21 22 22 23 24 24 25 25 26 26 26 27 27 27 27 27 29 30 30 30 28 26 24 23 23 22 21 20 19 17 17 16 16 15 15 14 13 14 15 16 18 20 21 22 23 23 23 23 23 22 21 21 20 20 21 23 24 25 27 29 31 32 34 36 37 37 38 38 38 39
18 18 18 18 19 19 19 20 21 22 23 24 24 24 24 24 24 24 25 25 25 26 26 27 27 28 28 28 28 28 27 28 29 30 30 29 28 26 25 23 23 22 21 20 18 17 16 16 16 15 14 13 12 12 14 15 17 18 19 20 20 21 21 21 21 21 20 19 19 19 20 21 23 24 25 27 29 30 32 34 36 37 38 38 38 38 39
20 20 20 20 20 21 21 22 23 24 25 25 26 27 27 27 27 27 27 28 28 28 28 28 29 29 29 29 29 28 28 29 29 29 29 28 27 26 25 23 22 21 19 18 17 16 16 16 15 14 13 12 12 13 14 15 16 17 18 18 19 20 20 20 19 19 18 18 18 19 20 22 23 24 25 27 28 30 32 33 35 37 38 38 39 38 38
22 22 22 21 21 22 23 23 23 24 24 25 26 27 27 27 27 27 27 27 28 28 28 29 29 29 29 29 28 28 29 29 29 28 27 27 26 25 24 22 20 19 18 17 17 17 17 15 14 12 11 11 12 12 13 14 15 16 17 18 18 19 19 19 18 17 17 17 18 20 21 22 23 24 25 26 28 29 31 33 34 36 38 38 39 38 38
22 21 21 21 21 21 22 22 22 23 24 25 25 26 26 26 26 26 26 26 26 27 27 28 28 29 29 28 28 28 29 28 27 27 27 26 25 23 21 20 19 18 18 17 17 17 16 14 12 11 11 11 11 12 12 13 14 15 16 17 17 17 18 18 17 17 17 18 19 21 22 23 23 24 25 26 28 29 31 32 34 36 37 38 39 39 38
22 21 21 21 22 22 22 22 22 23 24 24 24 24 25 25 25 25 25 26 26 26 27 27 27 27 27 27 27 28 27 27 26 26 25 24 22 20 19 19 19 19 18 18 17 16 14 12 11 10 10 10 10 11 12 13 14 15 16 16 16 16 16 17 16 16 17 18 20 22 23 23 24 24 25 26 27 29 30 32 33 35 36 37 38 39 39
23 22 22 22 22 22 21 20 20 20 19 20 20 21 22 23 24 25 25 25 25 25 25 25 25 25 25 25 26 26 26 26 25 23 22 21 20 19 19 19 18 18 18 18 16 14 12 11 10 9 9 9 9 10 11 12 13 14 14 15 15 15 15 15 16 16 17 18 20 22 23 24 24 24 25 26 28 29 30 32 33 34 36 37 37 38 38
21 20 19 19 17 16 15 14 14 14 14 15 17 18 20 22 23 23 23 22 21 21 21 22 22 22 22 22 23 23 23 23 22 21 20 19 19 19 19 19 19 19 19 18 15 13 12 11 10 8 8 8 9 9 10 11 12 13 14 14 15 14 14 15 15 16 17 19 21 22 24 25 25 25 25 26 28 29 30 32 33 34 35 36 37 37 38
13 13 13 13 12 11 11 11 10 10 12 14 16 17 19 20 20 20 20 19 19 18 18 18 18 19 19 19 19 19 19 19 19 19 19 19 20 20 20 20 21 20 19 17 15 13 11 10 9 8 7 8 8 9 10 11 12 13 14 14 15 15 15 15 15 16 18 19 21 22 24 25 25 25 26 26 28 29 30 31 32 33 34 35 36 36 37
11 12 12 12 12 11 11 10 10 9 10 10 11 12 14 16 17 18 18 17 16 16 15 16 16 17 17 17 17 16 17 17 18 18 19 19 20 20 20 21 21 20 18 16 14 12 11 9 8 7 7 7 8 9 10 11 13 14 15 15 16 16 16 15 16 16 18 19 21 22 23 24 24 24 25 26 28 29 30 31 32 33 34 35 35 36 36
11 12 13 13 13 13 12 11 10 8 7 6 7 8 10 12 13 14 14 14 14 14 14 15 15 15 16 16 16 16 16 17 17 18 18 19 19 20 20 21 21 19 17 15 13 12 11 9 8 8 7 7 8 9 10 11 13 14 16 16 17 16 16 16 16 17 17 19 20 22 23 23 23 24 24 25 27 28 29 30 31 32 33 34 35 36 36
11 12 13 14 14 14 12 11 10 9 8 7 8 9 10 11 11 12 13 13 13 13 14 14 15 15 15 16 16 16 16 17 18 19 19 19 19 20 21 21 20 18 16 15 13 12 11 10 9 8 8 8 9 10 11 12 13 15 16 17 17 17 17 16 16 17 17 18 20 22 23 23 23 24 24 25 26 28 29 29 30 31 32 33 34 35 35
7 8 10 12 14 14 13 11 10 9 9 8 9 10 10 10 11 12 12 12 13 13 14 14 14 14 15 15 16 16 17 18 19 19 20 19 19 20 21 21 19 18 17 15 14 13 12 11 10 9 9 9 10 10 11 12 13 14 16 17 17 17 17 16 16 16 17 19 20 21 22 23 23 24 25 25 26 27 28 29 30 30 31 32 33 34 34
5 6 7 9 11 12 13 12 12 11 10 9 10 10 11 11 12 12 12 13 13 14 14 15 15 15 15 16 16 16 17 18 18 19 19 19 20 21 21 21 19 18 17 16 15 14 13 12 12 11 11 11 11 11 12 13 13 14 15 16 17 17 16 16 16 16 18 19 20 21 22 23 23 24 25 26 26 27 27 28 29 30 31 32 32 33 33
6 6 6 7 8 9 10 11 11 11 10 10 10 11 12 12 12 13 14 14 15 15 15 15 15 15 15 15 15 15 16 16 17 17 18 19 20 22 22 21 20 19 19 18 16 15 15 14 14 13 12 12 12 12 13 13 14 15 16 16 17 17 16 16 16 17 18 19 20 21 22 23 23 24 26 27 27 27 28 28 28 29 30 31 32 32 33
5 5 5 6 6 7 8 8 8 9 9 10 10 11 12 12 12 13 15 15 16 16 16 15 14 14 13 13 13 14 15 16 16 17 18 20 22 22 22 22 22 21 20 19 17 17 16 16 16 16 15 14 14 14 14 14 15 15 16 17 17 17 16 16 16 17 18 20 21 21 22 23 24 25 26 28 28 29 29 29 29 29 30 31 32 32 33
4 5 5 5 5 6 6 7 7 7 8 9 10 10 11 12 13 14 15 16 16 16 16 15 14 14 14 14 14 15 15 16 17 18 19 21 22 23 23 23 23 22 21 20 19 19 18 18 18 18 17 17 16 16 16 16 16 16 17 17 18 17 17 17 17 18 19 20 21 22 23 24 25 26 27 28 30 30 30 30 30 30 30 30 31 32 32
5 5 6 6 6 6 6 7 7 7 8 9 9 10 11 12 14 15 16 16 16 16 16 16 15 15 15 15 16 16 16 16 17 19 20 22 23 23 23 24 24 23 23 22 22 20 19 19 20 20 19 19 18 18 17 17 17 18 18 18 19 18 18 18 18 19 19 21 22 23 23 24 25 26 27 28 30 31 31 32 31 31 31 30 30 31 31
6 6 6 7 7 7 8 8 9 9 9 9 9 10 11 12 14 15 15 16 16 16 16 16 16 16 16 16 16 16 15 16 17 19 21 22 23 23 24 25 25 25 25 24 23 22 22 21 21 21 21 21 20 20 19 19 19 19 20 20 20 20 19 19 19 20 20 21 22 23 24 24 25 26 27 28 29 30 31 32 32 32 32 31 31 30 30
6 6 6 7 7 8 8 9 10 10 11 11 11 11 12 12 13 14 15 16 16 17 17 17 17 17 16 16 16 16 16 17 17 19 21 23 24 24 25 26 27 27 26 26 25 25 25 24 24 23 23 22 22 22 21 21 20 21 21 21 21 21 21 21 21 21 22 22 23 23 24 25 25 26 26 27 28 29 30 31 32 32 32 32 32 31 31
8 8 8 8 7 7 8 9 10 11 12 12 13 13 13 13 13 14 14 15 16 17 18 18 18 18 18 17 17 17 18 18 19 20 22 23 24 25 26 26 27 27 27 28 28 28 28 27 26 25 25 24 24 24 24 23 23 23 23 23 23 23 22 22 22 23 24 24 24 24 25 25 25 25 26 27 28 29 29 30 31 32 32 33 33 32 31
9 9 9 9 8 9 9 9 9 9 10 11 12 14 14 14 15 15 15 16 16 17 17 18 18 18 18 18 18 19 19 20 20 21 22 23 25 26 27 27 27 27 27 28 29 29 29 28 28 27 27 27 27 27 26 26 25 25 25 24 24 24 24 24 24 24 25 26 26 26 26 26 26 26 26 27 28 29 29 30 31 31 32 33 33 33 32
11 11 10 10 11 11 10 9 8 8 8 9 11 13 14 15 16 16 17 17 17 17 17 17 17 17 17 18 18 19 20 21 21 21 22 23 25 27 27 27 26 26 26 28 29 29 29 28 28 28 28 28 28 28 28 28 28 28 27 27 26 25 25 25 25 26 27 27 27 27 27 27 27 27 27 27 28 29 29 30 31 31 31 32 33 33 33
12 12 12 13 13 12 11 10 9 9 9 11 12 12 13 14 15 16 17 18 18 18 17 17 17 16 17 18 18 20 21 22 22 22 22 23 24 26 26 26 26 26 27 28 29 29 29 28 28 28 28 28 29 29 29 29 29 29 29 29 28 27 26 26 26 27 28 29 29 29 29 29 29 28 28 28 29 30 30 31 31 31 31 32 33 33 33
13 13 14 14 14 13 12 11 11 11 12 13 13 13 12 13 14 15 16 17 18 18 17 17 17 17 18 18 19 21 22 22 23 23 23 24 24 25 26 26 27 28 28 28 29 29 28 28 27 28 28 29 29 29 30 30 31 31 31 31 30 29 28 27 27 28 29 29 30 30 30 31 30 30 30 30 30 31 32 32 32 32 32 33 33 33 33
16 15 15 15 14 14 13 13 13 14 16 16 16 14 13 13 13 14 15 16 18 18 18 18 18 18 19 19 20 21 22 23 24 25 25 25 25 26 26 26 27 28 28 28 29 29 29 29 29 30 30 31 31 31 32 32 32 32 32 32 31 30 29 29 28 29 30 30 30 31 31 32 32 32 32 32 32 33 33 34 34 34 34 33 34 34 33
20 19 17 16 16 16 16 16 17 18 18 19 18 17 16 14 14 15 15 16 17 18 19 20 20 20 20 20 21 22 23 24 25 26 26 26 26 26 26 26 26 27 27 28 29 30 31 31 32 32 32 33 33 33 34 34 34 33 33 33 33 32 31 30 30 30 30 31 31 32 33 34 34 34 34 34 34 35 35 35 35 35 35 35 35 35 34
24 23 22 21 20 19 19 19 19 20 20 20 20 20 18 16 16 17 16 16 16 18 19 21 22 22 22 22 23 23 23 24 25 26 27 27 27 27 27 27 27 27 27 28 28 30 31 32 32 33 33 34 34 34 34 34 34 33 33 33 33 32 32 31 31 31 32 32 33 33 34 35 36 36 36 36 36 37 37 37 37 37 37 36 36 36 35
27 26 25 24 23 22 21 21 21 21 21 21 21 21 20 20 20 19 18 17 18 19 20 21 23 24 24 25 25 25 25 25 26 26 27 28 28 28 28 28 28 28 28 29 29 30 31 32 32 33 33 34 34 34 34 34 33 33 33 33 33 33 33 33 33 33 33 34 34 35 36 37 37 38 38 38 38 38 39 39 38 38 38 38 38 37 37
Wind_Direction
212 212 210 210 213 214 216 218 218 219 219 219 219 222 225 227 228 230 233 235 237 239 241 243 244 246 247 249 252 254 255 256 258 260 261 263 264 266 267 267 267 268 268 269 270 270 270 269 267 265 265 264 264 263 263 263 264 265 266 269 271 273 275 278 280 282 284 286 288 290 292 294 295 296 297 298 298 298 298 298 298 299 300 301 301 300 299
209 211 210 209 211 214 217 219 220 221 223 222 221 221 223 225 227 229 231 234 237 239 240 242 243 245 247 249 251 254 256 258 259 260 261 263 265 265 265 267 268 269 270 271 272 273 273 270 268 266 265 265 264 264 265 265 266 267 268 270 272 274 277 279 281 283 285 288 290 292 294 295 297 297 298 298 298 298 298 298 299 299 300 301 301 301 300
207 211 211 211 211 212 214 218 220 221 222 222 222 221 223 225 226 228 230 233 236 238 240 242 244 245 246 248 251 253 255 256 257 258 260 262 262 263 265 267 269 271 273 274 275 274 273 271 269 268 268 267 267 267 267 267 268 268 270 272 274 277 279 281 283 285 288 291 293 294 295 297 297 298 298 298 298 298 298 299 299 300 301 301 302 301 301
207 211 214 215 214 213 213 214 217 219 220 222 222 222 223 225 227 229 231 233 236 238 241 243 245 247 249 250 252 253 254 255 256 258 260 261 260 261 264 268 272 275 276 276 277 276 274 273 271 270 269 269 268 268 268 268 269 270 272 274 276 278 280 282 285 288 290 292 294 295 295 296 297 297 297 298 298 299 300 301 302 302 303 303 303 302 302
207 212 215 219 219 217 215 214 214 216 219 222 223 224 224 225 227 229 233 235 237 238 241 243 246 248 251 252 253 254 254 255 257 260 261 260 260 262 266 271 275 277 275 276 278 276 273 271 270 269 268 267 267 267 268 268 270 272 275 277 278 280 283 286 288 290 291 292 293 294 295 295 296 297 298 299 300 301 302 303 304 304 304 303 303 303 302
207 211 214 219 221 221 219 217 215 216 218 221 224 225 225 225 227 229 232 235 237 239 241 243 245 248 251 254 256 256 257 258 259 260 260 260 261 265 270 274 278 278 276 276 277 274 270 269 268 267 266 266 266 268 269 271 273 275 277 279 281 284 286 288 289 290 291 292 293 294 295 296 297 299 300 302 303 304 304 305 305 305 305 305 305 304 304
210 213 216 219 222 223 223 221 219 218 219 220 223 225 225 226 227 229 232 235 237 240 241 243 245 248 252 255 257 259 260 260 261 261 262 263 265 268 272 276 280 281 279 276 274 271 268 267 266 266 266 267 269 270 272 274 275 277 279 281 284 285 287 288 290 291 292 293 295 296 297 298 300 302 303 304 305 305 305 305 306 306 306 306 306 306 306
213 216 218 220 223 226 226 225 223 219 219 220 223 226 227 228 229 230 232 234 236 238 240 242 244 247 250 253 256 258 259 262 263 264 264 266 268 270 273 277 282 282 278 273 270 268 266 265 265 265 267 269 270 272 274 275 278 280 282 283 285 287 289 290 292 293 294 295 296 298 300 301 303 304 305 305 306 306 307 307 307 308 308 308 308 307 307
216 218 221 223 225 227 229 229 229 226 224 224 225 229 231 231 230 231 232 234 236 238 240 242 243 245 249 253 255 256 260 264 265 264 265 267 269 272 274 278 282 280 273 268 265 264 263 263 263 265 267 269 272 274 276 278 280 282 284 286 288 290 292 292 293 294 295 296 298 300 302 303 304 305 306 307 308 309 309 310 309 309 308 308 308 307 307
219 221 223 225 227 229 231 233 234 234 233 231 230 231 232 231 231 232 233 234 236 239 241 243 243 246 250 254 255 257 263 267 265 264 266 269 271 273 275 278 278 272 265 261 260 261 262 263 264 266 269 271 274 276 278 280 283 285 287 289 291 292 292 292 293 294 296 298 299 301 302 304 305 307 309 310 310 311 310 310 309 309 309 308 308 308 308
220 222 224 227 229 231 234 235 236 237 237 238 236 234 231 229 231 234 235 237 239 241 242 243 245 248 251 254 255 259 264 265 262 263 266 269 271 273 273 274 270 263 258 259 260 261 263 265 267 269 271 274 276 278 280 282 284 287 288 289 290 290 291 292 293 295 297 299 300 302 304 306 308 310 311 311 311 310 310 309 309 309 309 309 309 309 310
223 225 227 229 232 234 235 236 237 238 238 238 238 235 229 227 230 234 235 238 240 242 243 244 246 248 251 252 254 257 261 261 260 263 266 269 271 272 270 267 262 258 259 261 262 263 265 267 269 271 273 275 277 279 281 283 285 286 287 288 288 289 291 292 294 296 298 300 302 304 307 309 310 311 311 310 310 310 310 310 310 310 310 311 311 312 313
227 230 233 236 238 240 240 240 240 240 239 237 236 236 231 228 231 235 236 238 239 240 242 243 244 246 248 250 252 255 258 261 263 266 269 269 268 265 263 260 257 257 259 261 261 263 265 267 269 271 273 275 277 279 281 282 283 284 285 287 288 289 291 293 296 298 300 302 305 307 308 309 310 310 310 310 311 311 311 311 311 312 313 314 315 315 315
230 234 238 242 244 244 243 244 244 243 241 239 237 237 235 231 233 238 241 242 243 242 243 243 244 245 248 250 252 254 257 261 265 267 267 263 259 257 256 255 254 256 257 258 260 263 266 269 271 272 274 276 278 279 280 280 281 283 285 287 288 290 292 295 297 299 301 303 305 307 308 309 309 310 311 312 312 312 312 313 314 315 317 317 318 318 318
232 236 239 243 245 245 244 246 246 245 245 244 241 240 238 236 237 240 243 246 249 249 249 247 245 246 249 250 252 254 256 258 260 260 256 251 250 250 250 250 251 253 255 257 261 264 267 270 271 273 275 276 277 277 278 279 281 282 284 287 289 292 294 296 298 299 301 304 306 307 309 309 310 311 312 313 313 313 314 315 317 318 319 320 320 321 321
235 237 240 244 246 245 244 245 245 244 244 242 239 237 237 238 240 241 244 247 250 253 252 245 240 242 246 248 250 252 252 252 251 250 248 247 247 246 246 247 250 252 255 258 261 265 267 270 272 273 274 274 274 275 276 278 281 283 285 287 289 292 293 295 297 300 303 305 307 308 309 310 311 312 312 313 313 315 317 318 320 321 321 322 322 323 323
237 239 241 242 241 239 238 237 237 236 235 237 238 237 237 239 241 242 243 244 245 248 248 239 233 236 241 244 245 245 243 243 244 245 246 246 245 244 245 248 251 253 256 259 262 265 268 270 271 271 271 271 272 274 276 278 281 283 285 287 289 290 292 296 299 303 305 306 307 309 310 311 311 312 312 314 315 317 319 321 322 323 324 324 324 325 326
236 238 238 236 233 231 231 231 229 227 228 232 234 233 234 237 238 238 238 239 240 241 240 235 233 236 240 242 241 240 240 243 245 244 244 244 244 246 248 251 254 256 258 260 264 266 267 268 268 267 268 269 271 273 276 278 280 282 284 286 288 291 295 298 302 304 306 306 307 308 309 310 311 312 314 316 318 320 322 324 325 326 326 327 327 328 330
231 232 231 229 228 228 229 230 228 226 227 229 230 232 237 239 236 234 234 235 236 236 235 234 235 237 239 240 241 242 244 245 245 244 244 245 247 249 251 254 256 257 259 262 264 265 265 264 264 264 266 269 271 273 274 276 277 279 281 284 289 294 298 301 303 304 305 305 307 309 309 310 311 313 316 319 321 323 326 328 329 329 329 330 330 331 333
227 229 230 230 229 227 227 229 229 230 232 233 235 238 241 240 236 234 233 234 235 235 235 235 235 236 237 238 240 242 243 242 243 245 247 249 252 253 254 255 256 258 260 261 262 262 261 261 261 263 266 268 269 270 272 273 274 277 281 286 292 297 300 301 302 303 304 306 307 308 309 311 313 316 319 322 324 328 330 331 332 333 333 333 332 333 335
227 230 232 233 231 227 226 226 226 228 230 232 233 234 234 233 233 233 233 235 236 236 236 235 235 236 238 238 238 238 239 242 246 250 252 254 254 254 254 255 257 259 260 260 259 258 257 258 260 262 264 264 265 265 266 268 272 277 283 290 295 298 299 300 301 303 305 306 308 309 311 313 316 318 321 325 328 331 333 335 336 337 337 336 336 336 338
217 219 220 222 223 225 225 224 222 221 222 224 226 226 226 228 230 232 234 236 237 238 238 237 237 237 238 238 239 239 242 246 249 251 251 251 251 252 255 256 257 258 257 255 254 253 254 256 258 259 258 258 258 259 262 267 275 283 289 293 296 298 299 299 301 304 306 308 310 312 313 316 318 320 323 327 331 333 336 337 339 340 340 340 339 340 342
216 218 217 218 220 222 225 226 225 223 224 226 227 226 227 229 231 233 235 236 236 237 238 238 239 239 239 240 240 241 244 246 246 245 244 245 248 253 255 255 254 252 250 248 248 249 251 252 252 251 250 250 252 257 265 275 283 289 292 294 296 297 299 301 303 306 308 310 312 313 315 317 320 322 326 330 333 335 337 339 341 342 343 343 343 344 346
222 222 220 217 216 216 219 222 225 227 229 232 233 233 234 235 235 235 235 235 235 235 236 236 237 238 238 239 240 241 242 243 242 242 243 245 249 252 252 250 248 246 244 244 245 246 245 243 242 242 243 246 252 261 272 280 285 289 291 294 296 298 301 303 306 308 310 311 313 314 317 319 322 325 329 332 334 336 338 340 341 343 345 346 347 347 348
228 228 227 225 223 223 224 226 228 231 232 234 236 238 239 239 238 237 237 236 236 237 237 237 238 238 238 238 239 239 239 238 239 241 243 245 246 246 244 243 241 240 240 241 240 237 234 234 234 235 238 244 255 266 274 280 285 289 292 295 298 300 303 305 307 309 310 312 314 316 319 323 326 329 332 334 336 337 339 340 342 344 347 349 349 349 349
231 232 233 233 233 233 234 235 237 238 238 239 240 241 242 241 241 240 239 238 238 238 238 238 238 239 239 238 237 237 236 237 238 240 242 242 241 239 238 236 236 236 235 233 229 226 226 227 228 230 237 248 259 269 276 282 287 290 293 296 299 302 304 307 309 311 312 314 317 320 323 326 329 331 334 335 337 339 340 341 343 346 348 350 350 350 350
232 233 234 235 236 236 236 237 239 240 241 241 241 242 242 241 241 240 240 239 239 238 238 237 237 238 238 238 236 235 235 237 237 237 238 237 236 234 233 232 231 228 224 220 219 220 221 220 222 230 242 254 264 272 279 284 289 292 295 298 301 304 307 309 311 313 316 317 321 325 327 329 331 333 335 337 339 340 341 342 344 347 349 351 351 351 351
234 234 235 235 235 236 237 237 239 240 241 241 242 242 242 242 241 240 239 239 238 238 238 237 237 236 236 237 236 235 237 238 237 235 234 233 233 232 230 225 220 216 214 213 214 215 214 215 222 235 248 259 268 275 282 286 291 295 297 300 303 307 310 312 313 317 319 322 325 329 331 331 332 334 336 338 339 340 342 344 346 348 350 351 351 351 352
236 235 235 235 236 237 239 240 241 242 243 244 244 243 243 242 240 238 236 235 234 234 234 235 235 235 235 235 235 235 234 234 233 233 232 231 227 222 217 212 209 209 209 209 208 208 209 216 226 238 249 260 269 277 284 289 293 296 299 303 308 311 313 314 315 318 321 325 328 331 331 332 332 334 336 337 339 342 344 346 347 349 351 352 352 352 353
236 236 236 237 239 239 239 239 240 240 241 242 242 242 242 241 239 237 235 233 232 232 231 231 232 232 232 232 232 231 230 228 227 226 224 220 213 207 205 205 205 205 204 203 202 204 210 219 229 238 248 259 270 279 285 291 296 300 304 308 312 314 315 315 316 318 322 326 329 330 331 332 333 334 335 338 340 343 345 347 349 350 351 352 352 353 353
234 233 232 233 232 230 228 228 230 233 237 241 242 242 241 239 237 235 232 229 227 226 226 227 227 226 225 225 225 227 226 223 219 214 208 203 201 200 200 201 199 198 197 197 199 204 212 220 229 237 246 259 271 280 287 293 299 304 309 312 315 317 318 317 317 319 322 325 328 330 331 332 333 334 336 339 341 343 346 347 349 350 350 351 353 353 353
218 216 215 214 213 211 214 219 225 234 243 248 247 244 239 234 229 225 221 219 219 219 219 219 220 219 218 217 217 218 217 212 206 201 198 198 199 200 199 199 198 197 196 196 199 206 213 219 226 233 245 259 271 281 290 297 302 307 311 315 318 320 320 320 320 320 322 325 328 330 332 333 334 335 337 340 342 343 345 347 348 349 350 351 352 353 354
194 196 200 202 205 209 215 220 225 235 244 245 240 233 228 223 218 213 210 209 211 211 211 212 212 212 213 211 206 203 201 198 196 196 197 199 201 201 199 198 197 196 195 197 202 208 213 216 221 230 243 257 271 282 292 298 304 309 313 316 319 321 322 322 323 322 322 324 327 330 332 333 334 336 338 340 341 342 343 346 347 348 349 350 352 353 354
201 205 209 212 216 219 220 219 218 218 219 213 203 197 197 199 201 201 200 201 203 204 205 207 208 207 206 201 194 190 192 193 194 197 199 201 201 199 198 197 196 194 194 198 204 210 214 216 220 231 244 256 270 283 292 298 304 310 314 318 320 322 323 324 324 323 323 326 328 331 333 335 336 337 339 341 341 341 342 345 347 347 348 349 351 352 353
214 217 220 222 221 218 214 212 210 205 195 183 177 177 179 182 187 190 192 194 196 197 198 199 198 196 194 190 186 187 193 196 196 197 199 200 200 199 198 197 196 195 196 199 204 211 217 219 223 232 244 256 268 279 289 297 304 309 314 318 321 322 324 325 325 324 325 329 331 333 335 337 338 339 340 341 341 341 342 344 346 347 347 348 349 351 352
196 202 210 212 209 204 200 199 201 200 193 184 178 176 176 179 185 187 188 188 188 188 188 187 187 187 188 189 189 192 197 200 199 199 200 200 199 198 198 197 197 197 199 202 205 212 220 225 229 235 245 255 265 275 284 293 301 307 312 317 320 322 323 324 324 325 328 332 334 336 337 339 340 340 341 342 342 342 342 344 345 346 347 348 348 349 350
153 160 176 188 193 196 196 195 195 193 190 188 185 181 179 179 181 183 184 184 184 184 184 185 187 190 192 194 196 198 201 202 203 203 202 200 199 198 198 198 199 201 205 208 209 214 222 230 235 240 246 253 262 271 279 288 296 304 310 315 320 322 322 322 323 326 329 332 335 337 339 341 342 342 342 343 343 344 344 344 345 346 347 348 348 348 349
147 148 156 166 174 181 185 187 189 190 189 191 194 194 189 186 185 187 189 189 187 186 187 189 191 194 195 196 198 201 202 204 205 206 204 202 201 200 200 199 201 205 210 213 215 219 226 233 239 244 248 253 260 268 275 282 291 299 306 312 318 320 320 320 322 325 328 331 334 337 339 341 342 343 343 343 344 345 345 346 346 346 347 347 347 348 348
153 151 155 162 167 170 172 176 181 185 187 192 197 197 194 191 190 190 191 190 188 186 187 189 191 193 194 196 198 201 204 207 209 209 206 204 203 203 203 202 205 210 214 217 221 225 230 236 242 247 251 256 261 267 273 279 286 292 299 306 313 317 318 317 319 322 325 328 331 334 337 339 341 343 343 342 343 344 346 346 347 347 347 347 348 348 348
176 173 175 178 179 177 177 179 183 186 188 193 197 196 193 191 191 190 191 191 191 190 191 192 193 195 197 198 200 204 207 208 210 210 209 208 208 208 207 208 211 215 218 221 225 228 232 237 244 249 253 258 263 268 273 278 283 288 293 299 306 312 315 315 315 318 321 324 327 330 333 335 338 340 341 341 341 342 344 346 347 347 347 347 347 348 348
198 198 200 201 199 196 194 193 193 192 193 195 198 199 197 196 195 196 196 197 199 199 199 200 201 203 204 205 207 210 212 211 211 212 212 212 212 212 212 214 216 219 222 225 229 232 235 239 245 250 255 259 264 268 273 277 280 284 289 293 300 306 310 311 311 313 316 319 322 326 328 331 334 336 337 338 339 340 341 343 345 346 346 345 346 346 347
209 208 210 211 210 209 211 210 208 204 202 200 201 204 205 206 207 206 206 207 208 209 211 212 214 215 217 218 219 220 219 218 216 215 215 215 215 215 215 218 221 224 226 230 234 237 239 243 247 251 256 259 263 268 271 275 278 281 285 289 293 299 304 307 308 310 312 315 317 320 323 326 329 331 333 334 336 337 339 340 342 343 344 343 343 344 345
213 212 213 214 214 215 218 220 219 216 213 210 208 209 210 211 214 215 215 215 216 217 220 222 224 226 227 228 227 226 224 223 222 219 218 218 218 217 218 221 224 227 230 234 237 240 243 245 248 252 256 260 263 267 271 273 276 279 281 284 287 292 296 300 303 305 308 310 313 316 319 321 324 326 328 330 332 334 336 337 338 340 341 341 341 342 343
221 218 216 217 219 220 222 224 224 223 220 217 217 217 217 216 216 216 218 219 220 222 225 228 230 232 233 233 231 229 227 226 224 222 221 221 222 222 223 225 227 228 231 234 237 240 243 247 249 253 256 259 263 266 270 273 276 278 279 281 283 286 289 293 297 300 303 305 309 312 314 317 320 322 324 326 328 330 332 333 335 336 337 338 339 340 341
229 227 225 222 222 223 225 228 230 228 224 220 220 221 221 221 220 220 220 222 223 225 227 230 232 234 235 234 233 231 230 228 226 225 224 224 224 225 227 229 230 230 232 236 239 242 245 249 252 255 257 259 262 265 269 273 275 277 278 280 281 282 285 288 291 294 297 300 304 307 310 312 315 318 320 322 324 327 329 330 331 333 334 335 336 337 338
232 232 231 230 229 229 231 234 234 232 229 226 225 224 223 223 223 223 224 225 226 227 229 231 233 234 234 234 234 233 232 231 229 229 229 228 229 230 233 235 235 234 235 238 242 245 247 250 253 255 258 260 262 265 268 271 273 276 277 278 279 280 281 283 286 289 292 295 299 303 306 308 311 314 316 318 320 323 325 326 328 329 330 331 332 334 336
233 234 235 236 236 237 237 237 237 235 234 233 233 231 228 227 227 227 227 228 230 231 232 233 234 234 234 234 234 233 233 232 230 230 230 232 233 236 239 240 239 237 237 239 243 246 249 251 254 256 259 261 263 265 267 269 271 273 275 277 278 278 279 280 282 285 288 291 295 298 301 304 307 310 313 315 317 318 320 322 324 325 326 327 328 330 333
239 237 237 239 240 241 241 241 240 239 239 241 242 241 237 234 234 234 234 234 235 235 235 235 235 235 235 234 234 234 233 232 231 230 231 232 234 237 239 240 240 240 240 241 244 248 251 253 255 257 259 261 263 265 266 268 270 272 274 276 277 278 278 279 280 282 285 288 292 295 297 300 303 306 309 311 312 314 316 318 320 321 323 324 325 327 329
246 245 244 243 242 241 241 241 240 240 242 245 247 247 244 241 239 240 239 238 238 238 238 238 238 238 237 236 236 236 236 235 234 233 233 234 236 238 239 241 242 243 243 244 245 248 251 253 255 256 258 261 263 265 266 268 271 273 274 275 276 277 278 278 279 281 284 286 289 292 295 297 300 303 305 306 308 310 312 313 315 317 319 321 322 323 325
248 249 249 248 245 242 239 237 238 239 242 245 248 250 251 249 248 246 245 242 241 240 240 240 240 240 240 239 238 237 237 236 236 237 238 238 239 240 242 243 244 245 246 247 248 250 252 254 255 257 259 261 262 264 266 268 270 272 272 273 274 276 278 279 280 282 284 286 288 290 293 295 297 300 301 303 305 306 308 309 311 313 315 316 318 319 321
247 248 248 248 248 247 244 242 241 242 244 246 249 252 254 253 252 251 251 249 246 244 242 242 241 241 241 241 241 240 239 238 239 239 241 241 241 243 244 245 247 248 249 250 251 252 254 255 257 258 259 261 262 264 265 267 268 269 270 271 273 276 278 280 281 283 284 285 287 289 290 293 295 297 298 300 302 303 304 306 307 309 311 312 314 315 317
248 248 248 248 249 250 250 249 248 248 247 248 250 252 252 251 251 252 252 252 249 247 245 244 244 244 243 243 243 243 244 243 243 244 245 245 246 246 247 247 248 249 250 250 251 253 254 256 258 259 260 262 263 264 266 267 268 269 270 272 274 276 278 279 281 282 283 284 285 287 288 290 292 294 296 298 299 300 301 303 304 306 307 308 309 311 313
Height
5680 5682 5686 5689 5693 5696 5698 5701 5703 5705 5708 5710 5713 5715 5718 5720 5722 5724 5725 5727 5728 5731 5733 5735 5736 5737 5739 5740 5741 5742 5743 5744 5745 5745 5746 5747 5748 5749 5749 5749 5749 5749 5749 5750 5750 5750 5750 5750 5749 5749 5749 5749 5749 5749 5749 5749 5749 5749 5748 5748 5747 5746 5746 5745 5744 5743 5742 5741 5739 5737 5736 5734 5732 5730 5728 5726 5725 5723 5721 5720 5718 5715 5713 5710 5708 5707 5705
5677 5680 5683 5686 5689 5693 5696 5698 5701 5703 5705 5708 5710 5712 5714 5716 5718 5720 5722 5723 5725 5727 5729 5731 5732 5733 5735 5736 5737 5738 5739 5740 5741 5742 5742 5744 5744 5745 5745 5745 5746 5746 5746 5746 5746 5747 5747 5746 5745 5745 5745 5745 5745 5745 5745 5745 5745 5744 5744 5743 5743 5742 5742 5741 5740 5738 5737 5736 5734 5732 5731 5729 5727 5725 5723 5722 5720 5718 5717 5715 5713 5710 5708 5705 5703 5701 5699
5675 5678 5680 5683 5686 5690 5693 5695 5698 5700 5702 5704 5706 5708 5710 5711 5714 5716 5718 5719 5721 5723 5725 5726 5728 5729 5731 5733 5734 5735 5736 5737 5738 5739 5740 5741 5741 5741 5742 5742 5743 5742 5743 5743 5743 5743 5743 5742 5741 5741 5741 5741 5741 5741 5741 5741 5741 5740 5740 5739 5739 5738 5737 5736 5735 5734 5732 5731 5729 5728 5726 5724 5722 5721 5719 5717 5715 5713 5712 5709 5707 5705 5703 5700 5698 5696 5693
5673 5675 5678 5681 5684 5687 5690 5692 5695 5697 5699 5700 5702 5704 5706 5708 5711 5713 5714 5716 5719 5721 5722 5723 5725 5726 5728 5730 5731 5732 5733 5734 5735 5736 5737 5737 5738 5738 5739 5739 5739 5739 5739 5739 5739 5739 5739 5738 5737 5737 5737 5737 5737 5737 5737 5737 5737 5736 5736 5735 5735 5734 5733 5732 5731 5729 5728 5726 5725 5723 5722 5720 5718 5716 5715 5713 5711 5708 5706 5704 5702 5700 5697 5695 5692 5690 5687
5671 5673 5676 5679 5681 5684 5686 5688 5691 5693 5695 5697 5699 5701 5703 5705 5708 5709 5711 5714 5716 5718 5719 5721 5722 5724 5725 5726 5728 5729 5730 5731 5732 5733 5734 5734 5735 5735 5736 5736 5736 5736 5736 5736 5736 5735 5735 5735 5734 5734 5733 5733 5733 5733 5733 5734 5733 5732 5732 5731 5731 5730 5729 5728 5726 5725 5723 5722 5720 5719 5717 5716 5714 5712 5710 5708 5706 5703 5701 5699 5697 5694 5691 5689 5686 5683 5680
5669 5671 5674 5676 5678 5680 5683 5686 5688 5690 5692 5694 5696 5698 5700 5702 5704 5706 5708 5710 5712 5714 5716 5718 5719 5720 5722 5723 5724 5725 5726 5727 5728 5729 5729 5730 5732 5732 5733 5733 5732 5732 5732 5732 5732 5732 5732 5731 5731 5730 5730 5729 5729 5729 5730 5730 5729 5729 5728 5727 5726 5725 5724 5723 5722 5720 5719 5718 5716 5715 5713 5712 5710 5708 5706 5703 5701 5698 5696 5694 5692 5689 5686 5683 5680 5677 5674
5667 5669 5671 5673 5675 5677 5680 5682 5685 5687 5690 5692 5693 5695 5697 5699 5701 5703 5705 5707 5709 5711 5713 5715 5716 5717 5719 5720 5721 5722 5722 5723 5724 5725 5726 5727 5728 5729 5729 5729 5729 5728 5728 5728 5727 5728 5728 5728 5728 5727 5726 5726 5726 5726 5726 5726 5725 5725 5724 5723 5722 5721 5720 5719 5718 5716 5715 5714 5712 5711 5709 5707 5705 5703 5701 5699 5696 5693 5691 5689 5686 5684 5681 5678 5675 5672 5669
5664 5666 5668 5670 5672 5674 5676 5679 5682 5685 5687 5689 5691 5693 5694 5696 5698 5700 5702 5704 5706 5708 5709 5711 5713 5714 5715 5716 5717 5718 5719 5720 5721 5721 5722 5723 5724 5725 5725 5725 5725 5724 5724 5724 5724 5724 5724 5725 5725 5724 5723 5723 5723 5723 5723 5722 5721 5720 5720 5719 5718 5717 5716 5715 5713 5712 5711 5709 5708 5706 5704 5702 5700 5699 5696 5694 5691 5688 5686 5683 5681 5678 5676 5673 5669 5666 5664
5661 5663 5665 5667 5669 5671 5673 5676 5679 5682 5684 5687 5688 5690 5692 5693 5695 5696 5698 5700 5702 5704 5705 5707 5709 5711 5712 5713 5714 5715 5716 5717 5717 5718 5718 5719 5720 5721 5721 5721 5721 5721 5720 5720 5720 5720 5721 5722 5722 5721 5720 5720 5720 5719 5719 5718 5717 5717 5716 5715 5714 5713 5712 5711 5709 5708 5707 5705 5704 5702 5700 5698 5696 5694 5692 5689 5686 5684 5681 5678 5676 5673 5671 5668 5665 5661 5658
5659 5661 5663 5665 5667 5669 5671 5674 5676 5679 5681 5683 5685 5687 5688 5690 5691 5693 5695 5696 5698 5700 5702 5704 5706 5707 5708 5709 5711 5712 5713 5713 5714 5714 5715 5715 5716 5717 5717 5717 5717 5717 5717 5717 5717 5718 5718 5718 5718 5718 5717 5716 5716 5716 5716 5715 5714 5713 5712 5711 5710 5709 5708 5707 5706 5704 5703 5701 5700 5698 5696 5693 5691 5690 5687 5684 5682 5679 5677 5674 5671 5668 5666 5663 5659 5656 5653
5656 5658 5660 5662 5664 5667 5669 5671 5673 5676 5678 5680 5681 5682 5684 5686 5688 5690 5692 5694 5695 5697 5699 5701 5702 5703 5705 5707 5708 5709 5709 5710 5710 5710 5711 5711 5712 5712 5713 5713 5713 5714 5714 5714 5715 5715 5715 5715 5715 5714 5713 5713 5712 5712 5712 5711 5710 5709 5708 5708 5707 5706 5705 5703 5702 5701 5699 5697 5695 5694 5692 5689 5687 5685 5683 5681 5678 5676 5673 5670 5667 5664 5661 5657 5654 5650 5647
5654 5656 5658 5660 5662 5664 5666 5668 5670 5672 5674 5676 5676 5677 5680 5683 5686 5687 5690 5692 5693 5694 5696 5697 5699 5701 5702 5703 5704 5705 5705 5705 5706 5707 5707 5708 5708 5708 5709 5709 5710 5710 5711 5711 5712 5712 5712 5712 5712 5711 5710 5709 5709 5709 5708 5708 5707 5706 5705 5704 5703 5702 5701 5700 5698 5697 5695 5693 5691 5690 5688 5686 5684 5682 5680 5677 5675 5672 5669 5666 5662 5659 5655 5652 5648 5645 5641
5654 5655 5657 5658 5660 5661 5663 5665 5667 5669 5670 5671 5671 5673 5678 5682 5683 5685 5687 5688 5689 5690 5692 5693 5695 5697 5698 5698 5699 5700 5701 5702 5702 5703 5703 5704 5704 5704 5705 5706 5706 5707 5707 5708 5708 5708 5708 5708 5708 5708 5707 5706 5706 5706 5705 5704 5703 5702 5701 5701 5700 5698 5697 5696 5694 5693 5691 5689 5688 5686 5684 5682 5680 5679 5677 5674 5671 5668 5665 5661 5658 5654 5651 5647 5643 5639 5635
5652 5654 5655 5656 5657 5658 5661 5662 5664 5665 5666 5666 5669 5673 5676 5678 5680 5682 5683 5683 5685 5686 5688 5689 5691 5693 5693 5694 5695 5697 5698 5699 5699 5699 5700 5700 5700 5701 5702 5703 5703 5704 5704 5705 5705 5705 5705 5705 5705 5705 5704 5703 5703 5702 5701 5701 5700 5699 5698 5697 5696 5695 5693 5692 5691 5689 5688 5686 5684 5683 5681 5679 5677 5675 5673 5670 5667 5664 5661 5658 5654 5650 5646 5642 5638 5634 5630
5650 5651 5652 5653 5654 5656 5658 5660 5661 5662 5663 5665 5668 5670 5672 5674 5676 5678 5678 5679 5681 5683 5684 5685 5687 5689 5689 5690 5691 5693 5694 5695 5695 5696 5697 5697 5697 5698 5699 5699 5700 5701 5701 5702 5702 5702 5702 5702 5701 5701 5701 5700 5699 5699 5698 5697 5697 5696 5695 5694 5692 5691 5690 5689 5688 5686 5684 5683 5682 5680 5678 5676 5674 5672 5670 5667 5664 5661 5657 5654 5650 5646 5642 5638 5634 5630 5626
5648 5649 5650 5651 5652 5654 5655 5656 5658 5659 5660 5662 5664 5665 5667 5670 5672 5673 5674 5676 5677 5679 5679 5680 5682 5684 5685 5686 5687 5689 5690 5691 5692 5693 5693 5694 5694 5695 5695 5696 5697 5698 5698 5698 5698 5698 5698 5698 5698 5698 5697 5697 5696 5696 5695 5694 5693 5692 5692 5690 5689 5688 5687 5686 5685 5683 5682 5680 5679 5677 5675 5673 5671 5669 5667 5664 5661 5658 5654 5651 5647 5643 5639 5635 5631 5627 5623
5645 5646 5648 5649 5650 5651 5652 5653 5654 5655 5657 5658 5660 5661 5663 5665 5667 5669 5670 5672 5674 5675 5675 5676 5678 5679 5681 5682 5684 5685 5686 5687 5688 5689 5690 5691 5691 5692 5692 5693 5693 5694 5695 5695 5695 5695 5695 5695 5694 5694 5694 5693 5693 5692 5692 5691 5690 5689 5688 5687 5687 5686 5684 5683 5682 5680 5679 5677 5676 5674 5672 5670 5668 5666 5664 5661 5658 5655 5651 5648 5644 5640 5636 5632 5628 5624 5620
5642 5643 5645 5646 5646 5647 5648 5649 5651 5653 5654 5656 5657 5659 5660 5662 5663 5665 5666 5668 5669 5671 5672 5673 5675 5676 5677 5679 5680 5681 5683 5684 5685 5686 5687 5688 5688 5688 5689 5690 5690 5690 5691 5691 5691 5691 5691 5691 5691 5691 5690 5690 5690 5689 5689 5688 5687 5686 5686 5685 5684 5683 5682 5680 5679 5678 5676 5675 5673 5672 5670 5668 5665 5663 5661 5658 5655 5652 5649 5645 5641 5637 5633 5629 5625 5621 5617
5639 5641 5642 5643 5643 5644 5645 5647 5648 5650 5652 5654 5655 5656 5658 5659 5660 5661 5662 5664 5665 5667 5669 5670 5671 5672 5674 5675 5677 5678 5680 5681 5682 5682 5683 5684 5684 5684 5685 5686 5686 5687 5687 5687 5688 5688 5688 5688 5687 5687 5687 5687 5687 5686 5686 5685 5685 5684 5683 5682 5681 5680 5679 5678 5677 5676 5674 5672 5671 5669 5667 5665 5663 5660 5658 5656 5653 5649 5646 5642 5639 5635 5631 5627 5623 5619 5614
5637 5638 5639 5640 5641 5642 5643 5644 5646 5648 5649 5651 5652 5653 5654 5656 5657 5658 5659 5660 5662 5664 5665 5667 5668 5669 5671 5672 5673 5675 5677 5678 5678 5678 5679 5680 5680 5680 5681 5682 5682 5683 5683 5684 5684 5684 5684 5684 5684 5684 5684 5684 5684 5683 5683 5682 5682 5682 5681 5680 5679 5678 5677 5676 5674 5673 5672 5670 5668 5666 5664 5662 5660 5658 5656 5653 5650 5647 5644 5640 5636 5632 5628 5624 5620 5616 5612
5635 5636 5637 5638 5639 5640 5641 5642 5643 5645 5646 5648 5649 5650 5651 5652 5653 5654 5656 5657 5659 5660 5662 5663 5665 5666 5668 5669 5671 5672 5673 5674 5674 5675 5676 5676 5676 5676 5677 5678 5679 5680 5680 5680 5681 5681 5681 5681 5681 5681 5682 5682 5681 5681 5681 5680 5680 5679 5679 5678 5677 5676 5675 5674 5672 5671 5669 5667 5666 5664 5662 5660 5658 5655 5653 5651 5648 5645 5641 5638 5634 5630 5626 5621 5617 5613 5609
5632 5633 5633 5634 5635 5636 5638 5639 5641 5642 5643 5645 5646 5647 5648 5649 5650 5651 5653 5654 5656 5657 5659 5660 5662 5663 5665 5666 5667 5668 5669 5670 5671 5672 5672 5671 5672 5673 5673 5674 5675 5676 5677 5677 5678 5678 5678 5678 5679 5679 5679 5679 5679 5679 5678 5678 5678 5677 5677 5676 5675 5674 5673 5671 5670 5669 5667 5665 5663 5661 5660 5658 5655 5653 5651 5648 5645 5642 5639 5635 5632 5628 5624 5619 5615 5610 5605
5630 5630 5631 5631 5632 5634 5635 5637 5638 5640 5641 5643 5644 5645 5646 5647 5648 5649 5650 5651 5653 5654 5656 5657 5658 5660 5661 5662 5663 5665 5666 5667 5668 5668 5668 5668 5668 5669 5670 5671 5672 5673 5674 5674 5675 5675 5676 5676 5676 5677 5677 5677 5677 5677 5676 5676 5676 5675 5674 5674 5673 5672 5671 5669 5668 5666 5664 5663 5661 5659 5657 5655 5653 5651 5648 5646 5643 5640 5636 5633 5629 5625 5621 5617 5612 5608 5603
5628 5629 5630 5630 5631 5632 5633 5634 5636 5637 5639 5640 5642 5643 5644 5645 5646 5647 5648 5649 5650 5651 5652 5654 5655 5656 5657 5659 5660 5661 5662 5663 5663 5664 5664 5665 5665 5666 5667 5668 5669 5670 5671 5671 5672 5672 5673 5674 5674 5674 5675 5675 5675 5675 5674 5674 5674 5673 5672 5672 5671 5670 5668 5667 5666 5664 5662 5660 5659 5657 5655 5653 5651 5649 5646 5643 5641 5638 5634 5631 5627 5623 5619 5615 5610 5606 5601
5626 5627 5627 5628 5629 5630 5632 5633 5634 5635 5636 5638 5639 5640 5641 5642 5643 5644 5645 5646 5647 5648 5649 5651 5652 5653 5654 5655 5656 5658 5659 5659 5659 5659 5660 5661 5662 5663 5664 5665 5666 5667 5668 5669 5669 5670 5671 5672 5672 5672 5673 5673 5673 5673 5673 5673 5672 5671 5670 5669 5668 5667 5666 5665 5663 5662 5660 5658 5657 5655 5653 5651 5649 5646 5644 5641 5639 5636 5632 5629 5625 5621 5617 5612 5608 5604 5600
5623 5624 5625 5626 5628 5629 5630 5631 5631 5632 5634 5635 5636 5637 5637 5638 5640 5641 5642 5643 5644 5645 5646 5647 5648 5649 5650 5651 5653 5654 5655 5655 5656 5656 5657 5658 5659 5660 5661 5662 5663 5664 5665 5666 5667 5668 5669 5670 5670 5670 5671 5671 5672 5671 5671 5671 5670 5669 5669 5668 5666 5665 5664 5663 5661 5660 5658 5657 5655 5653 5651 5649 5647 5644 5642 5640 5637 5634 5630 5627 5623 5619 5615 5611 5607 5603 5599
5621 5622 5623 5624 5625 5626 5627 5628 5629 5630 5630 5631 5632 5633 5634 5635 5636 5637 5638 5639 5640 5641 5642 5643 5644 5645 5646 5648 5649 5650 5650 5651 5652 5654 5654 5655 5656 5657 5658 5660 5661 5662 5663 5664 5665 5666 5667 5668 5668 5668 5669 5669 5670 5670 5669 5669 5668 5668 5667 5666 5665 5663 5662 5661 5659 5658 5656 5655 5653 5651 5649 5647 5645 5643 5640 5638 5635 5632 5629 5625 5621 5617 5613 5609 5605 5601 5597
5619 5620 5621 5622 5623 5624 5624 5625 5626 5627 5627 5628 5629 5630 5631 5632 5633 5634 5635 5636 5637 5638 5639 5640 5641 5642 5643 5644 5645 5646 5647 5648 5649 5650 5651 5652 5653 5655 5656 5657 5658 5659 5661 5662 5663 5664 5665 5666 5667 5667 5667 5667 5668 5668 5667 5667 5666 5666 5665 5664 5663 5662 5660 5659 5657 5656 5654 5653 5651 5649 5647 5645 5643 5641 5639 5636 5634 5631 5627 5624 5620 5616 5612 5608 5604 5600 5596
5616 5617 5618 5619 5620 5621 5622 5622 5623 5623 5624 5624 5625 5626 5627 5628 5629 5630 5631 5632 5633 5634 5635 5636 5637 5639 5640 5641 5642 5643 5644 5645 5646 5647 5648 5649 5651 5652 5654 5655 5656 5658 5659 5660 5662 5663 5664 5664 5665 5665 5665 5665 5666 5666 5666 5665 5665 5664 5663 5662 5661 5660 5659 5657 5655 5654 5653 5651 5649 5647 5646 5644 5642 5639 5637 5635 5632 5629 5626 5622 5618 5614 5610 5607 5603 5599 5595
5612 5614 5615 5616 5617 5618 5619 5619 5620 5620 5621 5621 5622 5623 5623 5624 5625 5626 5627 5628 5629 5630 5632 5633 5634 5636 5637 5638 5639 5640 5641 5642 5643 5644 5646 5647 5648 5650 5651 5653 5655 5656 5658 5659 5660 5661 5662 5663 5664 5664 5664 5664 5664 5664 5664 5664 5663 5663 5662 5661 5660 5659 5657 5656 5654 5653 5651 5650 5648 5646 5644 5642 5640 5638 5635 5633 5630 5627 5624 5620 5617 5613 5609 5606 5602 5598 5594
5610 5611 5612 5613 5614 5615 5616 5617 5617 5618 5618 5618 5619 5619 5620 5621 5621 5622 5624 5625 5626 5628 5629 5630 5632 5633 5634 5635 5636 5637 5638 5639 5641 5642 5643 5645 5647 5648 5650 5652 5653 5655 5656 5657 5659 5660 5661 5661 5662 5662 5662 5663 5663 5663 5663 5662 5662 5661 5660 5659 5658 5657 5656 5654 5653 5651 5650 5648 5647 5645 5642 5640 5638 5636 5633 5631 5628 5625 5622 5619 5616 5612 5609 5605 5602 5598 5594
5608 5609 5610 5611 5612 5613 5614 5615 5615 5616 5616 5616 5616 5616 5616 5617 5618 5619 5621 5622 5624 5625 5627 5628 5629 5630 5632 5633 5634 5635 5636 5638 5639 5641 5642 5644 5645 5647 5648 5650 5651 5653 5654 5656 5657 5658 5659 5660 5660 5661 5661 5661 5661 5661 5661 5661 5660 5660 5659 5658 5657 5656 5654 5653 5651 5650 5648 5647 5645 5643 5641 5639 5636 5634 5631 5629 5626 5623 5620 5617 5614 5611 5608 5604 5601 5597 5593
5606 5607 5608 5609 5610 5611 5612 5613 5613 5614 5614 5614 5613 5613 5614 5614 5616 5617 5619 5620 5622 5624 5625 5626 5627 5629 5630 5631 5632 5634 5635 5637 5638 5640 5641 5642 5644 5645 5647 5648 5650 5652 5653 5654 5655 5657 5658 5658 5659 5659 5660 5660 5660 5660 5660 5659 5659 5658 5657 5656 5655 5654 5653 5651 5650 5648 5647 5645 5644 5642 5640 5638 5635 5632 5630 5627 5625 5622 5619 5616 5613 5610 5606 5603 5600 5596 5593
5606 5607 5608 5608 5609 5610 5611 5611 5612 5613 5613 5613 5612 5612 5613 5614 5615 5616 5618 5620 5621 5622 5624 5625 5626 5627 5629 5630 5631 5633 5634 5636 5637 5639 5640 5641 5643 5644 5646 5647 5649 5650 5652 5653 5654 5655 5656 5657 5657 5658 5658 5658 5658 5658 5658 5658 5657 5656 5655 5654 5653 5652 5651 5649 5648 5647 5645 5644 5642 5640 5638 5636 5634 5631 5629 5626 5623 5621 5618 5615 5612 5609 5605 5602 5599 5596 5592
5605 5606 5606 5607 5608 5609 5609 5610 5611 5612 5612 5612 5612 5612 5613 5614 5615 5616 5618 5619 5620 5621 5623 5624 5625 5626 5628 5629 5631 5632 5633 5635 5636 5637 5639 5640 5641 5643 5644 5646 5648 5649 5650 5652 5653 5653 5654 5655 5656 5656 5657 5657 5657 5657 5656 5656 5655 5654 5653 5652 5651 5650 5649 5647 5646 5645 5644 5642 5640 5638 5636 5634 5632 5629 5627 5625 5622 5620 5617 5614 5611 5608 5605 5601 5598 5595 5592
5604 5604 5605 5605 5606 5607 5608 5609 5610 5611 5611 5612 5612 5612 5613 5614 5615 5616 5617 5618 5619 5620 5622 5623 5624 5626 5627 5628 5630 5631 5632 5633 5635 5636 5637 5638 5640 5642 5643 5645 5646 5647 5649 5650 5651 5652 5652 5653 5654 5654 5655 5655 5655 5655 5654 5654 5653 5653 5651 5650 5649 5648 5647 5646 5644 5643 5642 5640 5638 5636 5634 5632 5630 5627 5625 5623 5621 5618 5616 5613 5610 5607 5604 5601 5598 5594 5591
5603 5604 5604 5605 5606 5606 5607 5608 5609 5610 5611 5611 5612 5612 5613 5614 5615 5616 5617 5618 5619 5620 5621 5623 5624 5625 5626 5627 5628 5630 5631 5632 5634 5635 5636 5637 5639 5641 5642 5643 5645 5646 5647 5648 5649 5650 5651 5651 5652 5653 5653 5653 5653 5653 5653 5652 5651 5651 5650 5649 5647 5646 5645 5644 5642 5641 5640 5638 5636 5635 5632 5630 5628 5626 5623 5621 5620 5617 5615 5612 5609 5606 5603 5600 5597 5594 5590
5604 5604 5604 5605 5605 5606 5607 5607 5608 5609 5610 5611 5611 5612 5613 5613 5615 5616 5616 5617 5618 5620 5621 5622 5623 5624 5625 5627 5628 5629 5630 5631 5632 5633 5635 5636 5638 5639 5641 5642 5643 5644 5645 5646 5647 5648 5649 5649 5650 5650 5651 5651 5651 5651 5650 5650 5649 5648 5647 5646 5645 5644 5643 5642 5640 5639 5638 5636 5634 5633 5631 5629 5626 5624 5622 5620 5618 5616 5613 5610 5608 5605 5602 5599 5596 5593 5590
5604 5604 5604 5605 5605 5606 5606 5607 5608 5608 5609 5610 5611 5611 5612 5613 5614 5615 5616 5617 5618 5619 5620 5621 5622 5624 5625 5626 5627 5628 5629 5630 5631 5632 5633 5635 5636 5638 5639 5640 5641 5642 5643 5644 5646 5646 5647 5647 5648 5648 5648 5649 5649 5648 5648 5648 5647 5646 5645 5644 5643 5642 5641 5640 5638 5637 5636 5634 5632 5631 5629 5627 5625 5622 5620 5618 5616 5613 5611 5609 5606 5604 5601 5598 5595 5592 5589
5604 5604 5604 5605 5605 5606 5606 5606 5607 5608 5609 5609 5610 5611 5612 5612 5613 5614 5615 5616 5617 5618 5619 5621 5622 5623 5624 5625 5626 5627 5628 5629 5630 5631 5632 5633 5634 5636 5637 5638 5639 5640 5641 5643 5643 5644 5645 5645 5645 5646 5646 5646 5646 5646 5646 5645 5644 5644 5643 5642 5641 5640 5639 5637 5636 5635 5634 5632 5630 5629 5627 5625 5623 5620 5618 5616 5613 5611 5609 5607 5605 5602 5599 5597 5594 5591 5588
5603 5604 5604 5604 5605 5605 5606 5606 5607 5607 5608 5609 5609 5610 5611 5612 5612 5613 5614 5615 5616 5617 5618 5619 5620 5622 5622 5623 5624 5625 5626 5627 5628 5629 5630 5631 5633 5634 5635 5636 5637 5638 5639 5640 5641 5642 5642 5643 5643 5643 5643 5643 5643 5643 5643 5642 5642 5641 5640 5639 5638 5637 5636 5635 5634 5633 5631 5630 5628 5627 5625 5623 5621 5619 5617 5614 5612 5609 5607 5604 5602 5600 5598 5596 5593 5591 5588
5603 5603 5604 5604 5604 5605 5605 5605 5606 5607 5607 5608 5608 5609 5610 5611 5611 5612 5613 5614 5615 5616 5617 5618 5619 5620 5621 5622 5623 5623 5624 5625 5626 5627 5628 5629 5631 5632 5633 5634 5634 5635 5636 5637 5638 5639 5640 5640 5640 5640 5640 5640 5640 5640 5640 5640 5639 5638 5637 5636 5635 5634 5634 5632 5631 5630 5629 5628 5626 5625 5623 5621 5619 5617 5615 5613 5611 5608 5605 5603 5601 5598 5596 5594 5592 5590 5587
5602 5603 5603 5603 5603 5604 5604 5605 5605 5606 5606 5607 5607 5608 5608 5609 5610 5611 5612 5612 5613 5614 5615 5616 5617 5618 5619 5620 5621 5621 5622 5623 5624 5625 5626 5627 5628 5629 5630 5630 5631 5632 5633 5634 5635 5636 5636 5636 5637 5637 5637 5637 5637 5637 5637 5637 5636 5635 5635 5634 5633 5632 5631 5630 5628 5627 5626 5625 5624 5622 5621 5619 5617 5615 5613 5611 5609 5607 5604 5602 5599 5597 5595 5593 5590 5588 5586
5602 5602 5602 5603 5603 5603 5603 5603 5604 5604 5605 5605 5606 5606 5607 5608 5608 5609 5610 5611 5611 5612 5613 5614 5615 5616 5617 5617 5618 5619 5620 5620 5621 5622 5623 5624 5625 5626 5627 5628 5628 5630 5630 5631 5631 5632 5632 5632 5633 5633 5633 5633 5633 5633 5633 5633 5633 5632 5632 5631 5630 5629 5628 5627 5626 5625 5623 5622 5621 5620 5618 5617 5615 5613 5611 5609 5607 5605 5603 5601 5598 5596 5593 5591 5589 5586 5584
5600 5601 5601 5602 5602 5602 5602 5602 5603 5603 5604 5604 5604 5605 5605 5606 5607 5607 5608 5609 5609 5610 5611 5612 5612 5613 5614 5615 5615 5616 5617 5617 5618 5619 5620 5621 5623 5623 5624 5624 5625 5626 5627 5627 5627 5628 5628 5629 5629 5629 5630 5630 5629 5629 5629 5629 5628 5628 5628 5627 5627 5626 5624 5623 5623 5622 5620 5619 5618 5617 5615 5614 5613 5611 5609 5607 5605 5603 5601 5599 5597 5594 5592 5589 5587 5585 5582
5599 5599 5600 5600 5600 5601 5601 5601 5602 5602 5602 5603 5603 5603 5604 5604 5605 5605 5606 5606 5607 5608 5608 5609 5610 5610 5611 5612 5612 5613 5614 5615 5616 5617 5618 5619 5619 5619 5620 5621 5622 5623 5623 5624 5624 5624 5624 5625 5625 5625 5625 5625 5625 5625 5625 5625 5624 5624 5624 5623 5623 5622 5621 5620 5619 5618 5617 5616 5615 5613 5612 5611 5610 5608 5606 5604 5602 5600 5599 5597 5595 5592 5590 5588 5585 5583 5580
5597 5597 5598 5598 5598 5599 5600 5600 5601 5601 5601 5601 5601 5601 5602 5602 5602 5603 5603 5604 5604 5605 5606 5606 5607 5608 5608 5609 5610 5610 5611 5612 5613 5614 5615 5615 5616 5616 5617 5618 5619 5620 5620 5620 5620 5620 5620 5620 5621 5621 5621 5621 5621 5621 5621 5621 5620 5620 5620 5619 5619 5618 5618 5617 5616 5615 5614 5612 5611 5610 5609 5607 5606 5605 5603 5601 5599 5598 5596 5594 5592 5590 5588 5586 5583 5581 5578
5595 5595 5596 5596 5597 5598 5598 5599 5599 5599 5599 5599 5599 5599 5600 5600 5600 5601 5601 5601 5602 5603 5603 5604 5604 5605 5606 5606 5607 5607 5608 5609 5610 5610 5611 5611 5612 5613 5613 5614 5615 5615 5616 5616 5616 5616 5616 5616 5617 5617 5617 5617 5617 5617 5617 5616 5616 5616 5615 5615 5615 5614 5613 5613 5612 5611 5610 5609 5607 5606 5605 5603 5602 5601 5599 5598 5596 5594 5593 5591 5589 5587 5585 5583 5581 5578 5576
5593 5593 5594 5594 5595 5595 5596 5597 5597 5597 5596 5596 5597 5597 5598 5598 5599 5599 5599 5599 5600 5600 5601 5601 5602 5602 5603 5603 5604 5604 5605 5606 5606 5607 5607 5608 5608 5609 5610 5610 5611 5611 5612 5612 5612 5612 5612 5612 5612 5612 5612 5612 5612 5612 5612 5612 5611 5611 5611 5610 5610 5609 5609 5608 5608 5607 5606 5604 5603 5602 5600 5599 5598 5597 5596 5594 5593 5591 5589 5587 5585 5584 5582 5580 5577 5575 5573
5590 5590 5591 5592 5592 5592 5593 5593 5594 5594 5594 5594 5594 5595 5596 5596 5597 5597 5597 5597 5597 5597 5598 5598 5599 5599 5600 5600 5601 5601 5602 5602 5603 5603 5604 5604 5605 5605 5606 5606 5606 5607 5607 5607 5608 5607 5607 5607 5607 5607 5607 5607 5607 5607 5607 5607 5607 5606 5606 5605 5605 5604 5604 5604 5603 5602 5601 5600 5599 5597 5596 5595 5594 5593 5591 5590 5589 5587 5585 5583 5582 5580 5578 5576 5574 5572 5570
5586 5587 5588 5588 5588 5589 5589 5590 5590 5590 5591 5591 5592 5592 5593 5594 5594 5594 5594 5594 5595 5595 5595 5596 5596 5596 5597 5597 5597 5598 5598 5599 5599 5599 5600 5600 5601 5601 5601 5602 5602 5602 5602 5603 5603 5603 5602 5602 5602 5602 5602 5602 5602 5602 5602 5602 5602 5601 5601 5600 5600 5599 5599 5599 5598 5597 5596 5595 5594 5593 5592 5590 5589 5588 5587 5586 5584 5583 5581 5579 5577 5576 5574 5572 5570 5568 5566
5582 5583 5584 5584 5585 5586 5586 5586 5587 5587 5588 5589 5589 5590 5590 5591 5591 5591 5592 5592 5592 5592 5593 5593 5593 5593 5593 5594 5594 5594 5595 5595 5595 5596 5596 5596 5597 5597 5597 5597 5598 5598 5598 5598 5598 5598 5598 5598 5598 5597 5597 5597 5597 5597 5597 5597 5597 5596 5596 5595 5595 5595 5594 5594 5593 5592 5592 5591 5590 5588 5587 5586 5584 5583 5582 5581 5579 5578 5576 5574 5573 5571 5569 5568 5566 5564 5562